Regional Weather Roundup
Issued by NWS

Home | Current Version | Previous Version | Text Only | Print | Product List | Glossary On
Versions: 1 2 3 4 5 6 7 8 9 10 11 12 13 14 15 16 17 18 19 20 21 22 23 24 25 26 27 28 29 30 31 32 33 34 35 36 37 38 39 40 41 42 43 44 45 46 47 48 49 50
000
ASUS44 KOUN 291210
RWROK

WEATHER ROUNDUP FOR OKLAHOMA
NATIONAL WEATHER SERVICE NORMAN OK
700 AM CDT SUN MAY 29 2016

NOTE: "FAIR" INDICATES FEW OR NO CLOUDS BELOW 12,000 FEET WITH NO
      SIGNIFICANT WEATHER AND/OR OBSTRUCTIONS TO VISIBILITY.

OKZ001>007-009>012-014-015-017-291300-
NORTHWEST OKLAHOMA AND THE PANHANDLE

CITY           SKY/WX    TMP DP  RH WIND       PRES   REMARKS
GAGE           CLOUDY    64  61  90 S5        30.11S
6HR MIN TEMP:  59; 6HR MAX TEMP:  66; 6HR PCP: TRACE;

GUYMON         CLOUDY    57  50  77 CALM      30.13R
ENID/WOODRING  PTCLDY    63  63 100 CALM      30.08R
$$

OKZ016-021>023-033>039-044-045-291300-
SOUTHWEST OKLAHOMA

CITY           SKY/WX    TMP DP  RH WIND       PRES   REMARKS
LAWTON/REGL    CLOUDY    64  62  93 N3        30.08R
6HR MIN TEMP:  63; 6HR MAX TEMP:  74;

CLINTON        CLEAR     66  59  78 S14       30.11R
HOBART         CLEAR     63  60  90 SW6       30.10R
$$

OKZ018>020-024>031-291300-
CENTRAL OKLAHOMA

CITY           SKY/WX    TMP DP  RH WIND       PRES   REMARKS
OKLAHOMA CITY  MOCLDY    67  66  97 S5        30.09R
6HR MIN TEMP:  66; 6HR MAX TEMP:  71;

OKC/WILEY POST CLOUDY    70  66  87 S8        30.09R
STILLWATER     CLEAR     66  65  96 CALM      30.08R FOG
GUTHRIE        PTCLDY    69  68  96 SE6       30.08R FOG
$$

OKZ008-013-054>072-291300-
NORTHEAST OKLAHOMA

CITY           SKY/WX    TMP DP  RH WIND       PRES   REMARKS
TULSA          MOCLDY    68  67  96 SE3       30.07R
6HR MIN TEMP:  68; 6HR MAX TEMP:  73;

TULSA/JONES    PTCLDY    67  65  93 CALM      30.09R FOG
PONCA CITY     CLEAR     64  62  93 CALM      30.09R
BARTLESVILLE   PTCLDY    62  60  93 CALM      30.10R
MUSKOGEE       CLOUDY    66  65  96 SE3       30.10R FOG
$$

OKZ032-040>043-046>053-073>077-291300-
SOUTH CENTRAL/SOUTHEAST OKLAHOMA

CITY           SKY/WX    TMP DP  RH WIND       PRES   REMARKS
ARDMORE/DWNTWN CLOUDY    68  64  88 CALM      30.05R
MCALESTER      CLOUDY    66  62  87 CALM      30.09S
$$




USA.gov is the U.S. government's official web portal to all federal, state and local government web resources and services.